FW1542 Weather Reports


time (UTC)temp
C
wind
direction
speed
KPH
gust
KPH
rain 1hr
cm
rain 24hr
cm
rain mn
cm
humidity
%
barometer
mb
20260510063044 23 167 3.2 8.0 0.00 0.13 0.00 80 1010.7
20260510063030 23 167 3.2 8.0 0.00 0.13 0.00 80 1013.1
20260510061542 24 147 1.6 8.0 0.00 0.13 0.00 79 1010.9
20260510061532 24 147 3.2 6.4 0.00 0.13 0.00 79 1013.1
20260510060044 24 0 3.2 11.3 0.00 0.13 0.00 78 1010.9
20260510060036 24 155 1.6 9.7 0.00 0.13 0.00 78 1013.1
20260510054542 25 0 3.2 9.7 0.00 0.13 0.00 76 1010.8
20260510054533 25 140 3.2 8.0 0.00 0.13 0.00 77 1013.0
20260510053042 25 110 3.2 11.3 0.00 0.13 0.00 76 1010.7
20260510053020 25 262 3.2 11.3 0.00 0.13 0.00 76 1012.9
20260510051556 25 142 3.2 14.5 0.00 0.13 0.00 74 1010.4
20260510051517 25 114 3.2 12.9 0.00 0.13 0.00 75 1012.4
20260510050046 25 164 4.8 16.1 0.00 0.13 0.00 74 1010.3
20260510050017 25 165 6.4 16.1 0.00 0.13 0.00 74 1012.4
20260510044547 26 169 4.8 14.5 0.00 0.13 0.13 73 1010.1
20260510044513 26 145 6.4 14.5 0.00 0.13 0.13 73 1012.4
20260510043044 25 134 6.4 14.5 0.00 0.13 0.13 73 1010.2
20260510043013 25 132 4.8 12.9 0.00 0.13 0.13 74 1012.4
20260510041546 25 141 3.2 8.0 0.00 0.13 0.13 74 1010.1
20260510041511 25 142 3.2 8.0 0.00 0.13 0.13 74 1012.1
20260510040050 26 125 1.6 11.3 0.00 0.13 0.13 73 1010.0
20260510040011 26 125 1.6 11.3 0.00 0.13 0.13 73 1012.0
20260510034547 26 128 3.2 6.4 0.00 0.13 0.13 72 1009.9
20260510034519 26 129 3.2 6.4 0.00 0.13 0.13 73 1011.8
20260510033042 26 121 3.2 9.7 0.00 0.13 0.13 71 1009.8
20260510033012 26 121 3.2 9.7 0.00 0.13 0.13 72 1011.9
20260510031543 26 0 0.0 6.4 0.00 0.13 0.13 70 1009.7
20260510031511 26 115 0.0 6.4 0.00 0.13 0.13 70 1011.6
20260510030051 27 111 3.2 6.4 0.00 0.13 0.13 69 1009.6
20260510030017 27 111 3.2 6.4 0.00 0.13 0.13 69 1011.5
20260510024543 27 122 3.2 11.3 0.00 0.13 0.13 68 1009.5
20260510024509 27 123 3.2 11.3 0.00 0.13 0.13 69 1011.4
20260510023044 27 138 4.8 12.9 0.00 0.13 0.13 67 1009.2
20260510023008 27 94 4.8 11.3 0.00 0.13 0.13 68 1011.2
20260510021545 28 130 6.4 14.5 0.00 0.13 0.13 67 1009.0
20260510021507 28 148 4.8 14.5 0.00 0.13 0.13 68 1011.0
20260510020044 28 136 4.8 12.9 0.00 0.13 0.13 66 1008.8
20260510020006 28 119 4.8 12.9 0.00 0.13 0.13 67 1010.9
20260510014543 28 117 4.8 14.5 0.00 0.13 0.13 65 1008.5
20260510014509 28 134 4.8 14.5 0.00 0.13 0.13 66 1010.7
20260510013041 28 159 4.8 11.3 0.00 0.13 0.13 63 1008.2
20260510013008 28 159 4.8 11.3 0.00 0.13 0.13 64 1010.3
20260510011547 29 167 4.8 9.7 0.00 0.13 0.13 63 1008.0
20260510011508 29 168 4.8 9.7 0.00 0.13 0.13 63 1010.1
20260510010041 30 161 4.8 11.3 0.00 0.13 0.13 62 1007.8
20260510010005 30 160 4.8 11.3 0.00 0.13 0.13 62 1009.9
20260510004539 30 145 4.8 14.5 0.00 0.13 0.13 61 1007.7
20260510004503 30 164 4.8 12.9 0.00 0.13 0.13 62 1009.7
20260510003045 30 204 4.8 14.5 0.00 0.13 0.13 60 1007.4
20260510003006 30 182 3.2 14.5 0.00 0.13 0.13 61 1009.4
20260510001542 31 192 4.8 11.3 0.00 0.13 0.13 60 1007.2
20260510001501 31 210 4.8 11.3 0.00 0.13 0.13 61 1009.3
20260510000103 31 194 4.8 11.3 0.00 0.13 0.13 60 1009.4
20260510000044 31 207 3.2 12.9 0.00 0.13 0.13 60 1007.3
20260509234559 31 192 4.8 11.3 0.00 0.13 0.13 60 1009.6
20260509234543 31 185 4.8 11.3 0.00 0.13 0.13 59 1007.4
20260509233059 31 154 6.4 14.5 0.00 0.13 0.13 58 1009.6
20260509233043 31 167 6.4 16.1 0.00 0.13 0.13 58 1007.4
20260509231604 31 201 3.2 12.9 0.00 0.13 0.13 59 1009.7
20260509231545 31 206 4.8 12.9 0.00 0.13 0.13 58 1007.5
20260509230100 31 249 0.0 6.4 0.00 0.13 0.13 59 1009.5
20260509230055 31 0 0.0 6.4 0.00 0.13 0.13 58 1007.4
20260509224601 31 244 1.6 6.4 0.00 0.13 0.13 58 1009.6
20260509224544 31 244 1.6 9.7 0.00 0.13 0.13 57 1007.4
20260509223057 32 216 1.6 9.7 0.00 0.13 0.13 56 1009.6
20260509223043 32 215 0.0 9.7 0.00 0.13 0.13 56 1007.4
20260509221556 32 198 1.6 6.4 0.00 0.13 0.13 57 1009.6
20260509221546 32 0 0.0 6.4 0.00 0.13 0.13 57 1007.4
20260509220103 32 243 4.8 12.9 0.00 0.13 0.13 55 1009.7
20260509220048 32 217 1.6 11.3 0.00 0.13 0.13 55 1007.4
20260509214600 32 239 3.2 9.7 0.00 0.13 0.13 57 1009.7
20260509214540 32 246 1.6 9.7 0.00 0.13 0.13 55 1007.4
20260509213119 33 169 0.0 9.7 0.00 0.13 0.13 54 1009.8
20260509213057 33 0 0.0 6.4 0.00 0.13 0.13 54 1007.5
20260509211553 33 238 1.6 11.3 0.00 0.13 0.13 57 1010.0
20260509211542 33 225 3.2 11.3 0.00 0.13 0.13 57 1007.7
20260509210100 32 274 0.0 9.7 0.00 0.13 0.13 57 1010.3
20260509210058 32 0 1.6 9.7 0.00 0.13 0.13 57 1007.9
20260509204545 32 234 0.0 16.1 0.00 0.13 0.13 59 1010.5
20260509204542 32 0 0.0 16.1 0.00 0.13 0.13 58 1008.0
20260509203043 32 263 4.8 14.5 0.00 0.13 0.13 61 1010.8
20260509201543 32 240 1.6 11.3 0.00 0.13 0.13 60 1008.7
20260509201539 32 250 3.2 9.7 0.00 0.13 0.13 60 1011.1
20260509200043 31 0 3.2 12.9 0.00 0.13 0.13 62 1009.0
20260509200037 31 205 1.6 12.9 0.00 0.13 0.13 64 1011.3
20260509194542 31 0 0.0 12.9 0.00 0.13 0.13 67 1009.3
20260509194536 31 252 0.0 12.9 0.00 0.13 0.13 67 1011.6
20260509193044 31 0 0.0 11.3 0.00 0.13 0.13 62 1009.6
20260509193042 31 306 0.0 11.3 0.00 0.13 0.13 62 1011.9
20260509191546 31 0 1.6 14.5 0.00 0.13 0.13 65 1009.8
20260509191539 31 238 1.6 12.9 0.00 0.13 0.13 66 1012.0
20260509190043 31 213 3.2 11.3 0.00 0.13 0.13 64 1009.8
20260509190032 31 213 1.6 11.3 0.00 0.13 0.13 64 1012.1
20260509184553 31 0 1.6 11.3 0.00 0.13 0.13 68 1009.9
20260509184536 31 258 1.6 11.3 0.00 0.13 0.13 68 1012.3
20260509183042 30 271 1.6 8.0 0.00 0.13 0.13 67 1010.1
20260509183031 30 259 1.6 8.0 0.00 0.13 0.13 68 1012.4
20260509181556 30 0 1.6 16.1 0.00 0.13 0.13 66 1010.2
20260509181526 30 264 1.6 16.1 0.00 0.13 0.13 67 1012.5
20260509180049 30 225 4.8 14.5 0.00 0.13 0.13 69 1010.4
20260509180023 30 227 3.2 14.5 0.00 0.13 0.13 69 1012.8
20260509174546 29 284 3.2 12.9 0.00 0.13 0.13 71 1010.4
20260509174520 29 288 3.2 12.9 0.00 0.13 0.13 72 1013.0
20260509173046 28 248 1.6 14.5 0.00 0.13 0.13 75 1010.6
20260509173019 28 248 1.6 14.5 0.00 0.13 0.13 75 1013.1
20260509171543 27 274 3.2 14.5 0.00 0.13 0.13 78 1010.8
20260509171513 27 269 3.2 14.5 0.00 0.13 0.13 78 1013.3
20260509170048 27 227 3.2 11.3 0.00 0.13 0.13 78 1010.8
20260509170014 27 217 1.6 11.3 0.00 0.13 0.13 77 1013.5
20260509164543 27 277 1.6 14.5 0.00 0.13 0.13 82 1010.7
20260509164507 26 277 1.6 11.3 0.00 0.13 0.13 83 1013.4
20260509163043 26 216 4.8 14.5 0.00 0.13 0.13 85 1010.4
20260509163004 26 221 4.8 14.5 0.00 0.13 0.13 86 1013.2
20260509161605 25 226 0.0 14.5 0.00 0.13 0.13 91 1013.6
20260509161542 25 0 1.6 14.5 0.00 0.13 0.13 91 1010.8
20260509160058 25 234 1.6 8.0 0.00 0.13 0.13 96 1013.6
20260509160043 24 0 0.0 6.4 0.00 0.13 0.13 96 1011.0
20260509154617 23 0 0.0 6.4 0.00 0.13 0.13 97 1011.1
20260509154603 23 183 0.0 4.8 0.00 0.13 0.13 97 1013.8
20260509153101 23 173 3.2 9.7 0.00 0.13 0.13 97 1014.0
20260509153058 23 180 4.8 11.3 0.00 0.13 0.13 97 1011.5
20260509151550 23 167 3.2 8.0 0.00 0.13 0.13 97 1014.0
20260509151548 23 167 3.2 8.0 0.00 0.13 0.13 97 1011.5
20260509150047 23 176 1.6 4.8 0.00 0.13 0.13 97 1011.5
20260509144542 23 194 1.6 4.8 0.00 0.13 0.13 97 1011.3
20260509144540 23 195 1.6 4.8 0.00 0.13 0.13 98 1013.9
20260509143051 22 0 0.0 6.4 0.00 0.13 0.13 97 1011.5
20260509143037 22 150 0.0 3.2 0.00 0.13 0.13 98 1014.1
20260509141546 22 101 0.0 4.8 0.00 0.13 0.13 97 1011.6
20260509141535 22 101 1.6 4.8 0.00 0.13 0.13 97 1014.0
20260509140052 22 0 0.0 1.6 0.00 0.13 0.13 97 1011.0
20260509140042 22 338 0.0 0.0 0.00 0.13 0.13 97 1013.5
20260509134542 22 0 0.0 8.0 0.00 0.13 0.13 97 1010.3
20260509134538 22 338 0.0 8.0 0.00 0.13 0.13 97 1013.0
20260509133041 22 24 1.6 6.4 0.00 0.13 0.13 97 1010.2
20260509133029 22 24 1.6 6.4 0.00 0.13 0.13 98 1012.9
20260509131544 22 145 0.0 9.7 0.13 0.13 0.13 97 1010.3
20260509131532 22 145 0.0 6.4 0.13 0.13 0.13 98 1013.0
20260509130046 22 92 3.2 6.4 0.13 0.13 0.13 97 1011.0
20260509130022 22 92 3.2 6.4 0.13 0.13 0.13 97 1013.4
20260509124543 22 46 1.6 6.4 0.13 0.13 0.13 97 1010.7
20260509124518 22 46 1.6 6.4 0.13 0.13 0.13 98 1013.3
20260509123043 22 0 4.8 9.7 0.13 0.13 0.13 96 1011.0
20260509123017 22 55 4.8 9.7 0.13 0.13 0.13 97 1013.5
20260509121545 22 0 3.2 16.1 0.00 0.00 0.00 96 1011.0
20260509121512 22 41 3.2 16.1 0.00 0.00 0.00 97 1013.7
20260509120052 22 9 3.2 11.3 0.00 0.00 0.00 96 1010.9
20260509120005 22 9 4.8 11.3 0.00 0.00 0.00 96 1013.6
20260509114548 22 38 0.0 4.8 0.00 0.00 0.00 96 1010.4
20260509114504 22 38 0.0 4.8 0.00 0.00 0.00 96 1013.1
20260509113039 22 0 0.0 4.8 0.00 0.00 0.00 96 1010.1
20260509113002 22 38 0.0 4.8 0.00 0.00 0.00 96 1012.7
20260509111558 22 36 0.0 6.4 0.00 0.00 0.00 96 1012.8
20260509111542 22 0 1.6 8.0 0.00 0.00 0.00 96 1010.0
20260509110100 22 38 1.6 8.0 0.00 0.00 0.00 96 1012.6
20260509110045 22 38 1.6 8.0 0.00 0.00 0.00 96 1009.9
20260509104552 22 46 0.0 6.4 0.00 0.00 0.00 96 1012.7
20260509104543 22 0 0.0 6.4 0.00 0.00 0.00 96 1010.0
20260509103046 22 59 0.0 9.7 0.00 0.00 0.00 96 1012.9
20260509103042 22 0 1.6 11.3 0.00 0.00 0.00 96 1010.2
20260509101552 22 60 3.2 8.0 0.00 0.00 0.00 96 1010.0
20260509100048 22 40 0.0 4.8 0.00 0.00 0.00 95 1009.8
20260509100045 22 40 0.0 4.8 0.00 0.00 0.00 96 1012.6
20260509094548 22 39 1.6 8.0 0.00 0.00 0.00 95 1009.3
20260509094543 22 39 0.0 8.0 0.00 0.00 0.00 96 1011.8
20260509093043 22 11 0.0 8.0 0.00 0.00 0.00 95 1009.2
20260509091602 22 0 1.6 9.7 0.00 0.00 0.00 95 1008.8
20260509091549 22 47 1.6 9.7 0.00 0.00 0.00 96 1011.4
20260509090044 22 80 1.6 4.8 0.00 0.00 0.00 96 1011.6
20260509084547 22 175 0.0 3.2 0.00 0.00 0.00 95 1009.0
20260509084545 22 175 0.0 3.2 0.00 0.00 0.00 96 1011.6
20260509083048 22 0 0.0 6.4 0.00 0.00 0.00 95 1009.3
20260509083039 22 178 0.0 6.4 0.00 0.00 0.00 96 1011.8
20260509081543 22 0 1.6 4.8 0.00 0.00 0.00 95 1009.4
20260509081537 22 182 1.6 4.8 0.00 0.00 0.00 95 1011.9
20260509080051 22 146 1.6 17.7 0.00 0.00 0.00 95 1009.5
20260509080040 22 146 1.6 9.7 0.00 0.00 0.00 95 1011.9
20260509074545 22 155 4.8 14.5 0.00 0.00 0.00 95 1009.3
20260509074535 22 165 4.8 14.5 0.00 0.00 0.00 95 1011.9
20260509073114 22 122 6.4 17.7 0.00 0.00 0.00 94 1009.1
20260509073104 22 130 6.4 17.7 0.00 0.00 0.00 95 1011.8
20260509071544 22 140 1.6 14.5 0.00 0.00 0.00 94 1009.4
20260509071532 22 140 3.2 12.9 0.00 0.00 0.00 94 1012.1
20260509070047 22 94 6.4 14.5 0.00 0.00 0.00 94 1009.2
20260509070028 22 94 6.4 14.5 0.00 0.00 0.00 94 1011.9
20260509064543 22 141 4.8 11.3 0.00 0.00 0.00 94 1009.7
20260509064524 22 142 4.8 11.3 0.00 0.00 0.00 94 1012.5